Change the Weather History Date:

Tuesday, April 9, 2013

  Actual Average Record
Temperature  
Mean Temperature 39 °F -  
Max Temperature 46 °F 54 °F 68 °F (2011)
Min Temperature 32 °F 39 °F 30 °F (1998)
Degree Days  
Heating Degree Days 26    
Moisture  
Dew Point 27 °F    
Average Humidity 60    
Maximum Humidity 81    
Minimum Humidity 43    
Precipitation  
Precipitation 0.00 in - - ()
Sea Level Pressure  
Sea Level Pressure 29.68 in    
Wind  
Wind Speed 13 mph ()    
Max Wind Speed 22 mph    
Max Gust Speed 20 mph    
Visibility 6.2 miles    
Events      
Averages and records for this station are not official NWS values.
T = Trace of Precipitation, MM = Missing Value Source: Averaged Metar Reports

Daily Weather History Graph

Daily Weather History Graph

Search for Another Location

Airport or City:

Trip Planner

Search our weather history database for the weather conditions in past years. The results will help you decide how hot, cold, wet, or windy it might be!

Date:

Astronomy

Apr. 09, 2013 Rise Set
Actual Time 6:27 AM BST 8:12 PM BST
Civil Twilight 5:48 AM BST 8:51 PM BST
Nautical Twilight 4:59 AM BST 9:40 PM BST
Astronomical Twilight 4:04 AM BST 10:37 PM BST
Moon 5:50 AM BST (4/9) 7:32 PM BST (4/9)
Length of Visible Light 15h 02m
Length of Day
13h 44m
Waning Crescent, 1% of the Moon is Illuminated
Apr 9
Waning Crescent
Apr 10
New
Apr 18
First Quarter
Apr 25
Full
May 2
Last Quarter

Hourly Weather History & Observations

Time (BST) Temp. Windchill Dew Point Humidity Pressure Visibility Wind Dir Wind Speed Gust Speed Precip Events Conditions
12:20 AM 35.6 °F 26.6 °F 26.6 °F 70% 29.74 in 6.2 mi ENE 13.8 mph - N/A   Overcast
12:50 AM 35.6 °F 26.6 °F 26.6 °F 70% 29.74 in 6.2 mi ENE 13.8 mph - N/A   Mostly Cloudy
1:20 AM 35.6 °F 26.2 °F 26.6 °F 70% 29.71 in 6.2 mi ENE 15.0 mph - N/A   Overcast
1:50 AM 35.6 °F 26.6 °F 24.8 °F 65% 29.71 in 6.2 mi ENE 13.8 mph - N/A   Mostly Cloudy
2:20 AM 35.6 °F 27.1 °F 24.8 °F 65% 29.71 in 6.2 mi ENE 12.7 mph - N/A   Mostly Cloudy
2:50 AM 35.6 °F 27.1 °F 24.8 °F 65% 29.71 in 6.2 mi ENE 12.7 mph - N/A   Overcast
3:20 AM 35.6 °F 26.2 °F 24.8 °F 65% 29.71 in 6.2 mi ENE 15.0 mph - N/A   Mostly Cloudy
3:50 AM 35.6 °F 27.1 °F 24.8 °F 65% 29.68 in 6.2 mi ENE 12.7 mph - N/A   Overcast
4:20 AM 35.6 °F 27.1 °F 24.8 °F 65% 29.68 in 6.2 mi ENE 12.7 mph - N/A   Mostly Cloudy
4:50 AM 35.6 °F 27.5 °F 24.8 °F 65% 29.68 in 6.2 mi ENE 11.5 mph - N/A   Overcast
5:20 AM 35.6 °F 26.6 °F 24.8 °F 65% 29.68 in 6.2 mi ENE 13.8 mph - N/A   Scattered Clouds
5:50 AM 33.8 °F 26.4 °F 24.8 °F 70% 29.68 in 6.2 mi East 9.2 mph - N/A   Scattered Clouds
6:20 AM 33.8 °F 27.0 °F 24.8 °F 70% 29.68 in 6.2 mi East 8.1 mph - N/A   Scattered Clouds
6:50 AM 32.0 °F 24.2 °F 24.8 °F 75% 29.68 in - East 9.2 mph - N/A   Clear
7:20 AM 33.8 °F 26.4 °F 24.8 °F 70% 29.68 in 6.2 mi East 9.2 mph - N/A   Partly Cloudy
7:50 AM 33.8 °F 26.4 °F 24.8 °F 70% 29.68 in - East 9.2 mph - N/A   Clear
8:20 AM 35.6 °F 27.1 °F 26.6 °F 70% 29.68 in 6.2 mi East 12.7 mph - N/A   Partly Cloudy
8:50 AM 35.6 °F 27.1 °F 26.6 °F 70% 29.68 in 6.2 mi East 12.7 mph - N/A   Partly Cloudy
9:20 AM 39.2 °F 31.6 °F 26.6 °F 61% 29.68 in - East 12.7 mph - N/A   Clear
9:50 AM 41.0 °F 32.2 °F 24.8 °F 53% 29.68 in 6.2 mi East 18.4 mph - N/A   Partly Cloudy
10:20 AM 41.0 °F 31.9 °F 23.0 °F 49% 29.68 in 6.2 mi East 19.6 mph - N/A   Scattered Clouds
10:50 AM 42.8 °F 34.5 °F 24.8 °F 49% 29.68 in 6.2 mi East 18.4 mph - N/A   Scattered Clouds
11:20 AM 42.8 °F 34.5 °F 24.8 °F 49% 29.68 in 6.2 mi East 18.4 mph - N/A   Partly Cloudy
11:50 AM 44.6 °F 36.6 °F 26.6 °F 49% 29.68 in 6.2 mi East 19.6 mph - N/A   Partly Cloudy
12:20 PM 44.6 °F 36.1 °F 26.6 °F 49% 29.65 in 6.2 mi ENE 21.9 mph - N/A   Partly Cloudy
12:50 PM 46.4 °F 39.2 °F 26.6 °F 46% 29.65 in 6.2 mi East 18.4 mph - N/A   Partly Cloudy
1:20 PM 46.4 °F 39.2 °F 24.8 °F 43% 29.65 in 6.2 mi ENE 18.4 mph - N/A   Partly Cloudy
1:50 PM 46.4 °F 39.2 °F 26.6 °F 46% 29.65 in 6.2 mi ENE 18.4 mph - N/A   Partly Cloudy
2:20 PM 46.4 °F 39.2 °F 26.6 °F 46% 29.65 in 6.2 mi ENE 18.4 mph - N/A   Partly Cloudy
2:50 PM 46.4 °F 39.2 °F 26.6 °F 46% 29.65 in 6.2 mi ENE 18.4 mph - N/A   Scattered Clouds
3:20 PM 46.4 °F 39.5 °F 26.6 °F 46% 29.65 in 6.2 mi East 17.3 mph - N/A   Partly Cloudy
3:50 PM 46.4 °F 39.2 °F 26.6 °F 46% 29.65 in 6.2 mi ENE 18.4 mph - N/A   Partly Cloudy
4:20 PM 46.4 °F 39.5 °F 24.8 °F 43% 29.65 in 6.2 mi ENE 17.3 mph - N/A   Partly Cloudy
4:50 PM 46.4 °F 40.1 °F 24.8 °F 43% 29.65 in 6.2 mi ENE 15.0 mph - N/A   Partly Cloudy
5:20 PM 46.4 °F 39.8 °F 24.8 °F 43% 29.68 in 6.2 mi East 16.1 mph - N/A   Partly Cloudy
5:50 PM 44.6 °F 38.1 °F 26.6 °F 49% 29.68 in 6.2 mi ENE 13.8 mph - N/A   Partly Cloudy
6:20 PM 44.6 °F 38.1 °F 26.6 °F 49% 29.68 in 6.2 mi ENE 13.8 mph - N/A   Partly Cloudy
6:50 PM 42.8 °F 35.8 °F 26.6 °F 53% 29.68 in 6.2 mi East 13.8 mph - N/A   Partly Cloudy
7:20 PM 42.8 °F 35.4 °F 28.4 °F 57% 29.68 in 6.2 mi East 15.0 mph - N/A   Partly Cloudy
7:50 PM 41.0 °F 33.9 °F 28.4 °F 61% 29.68 in - East 12.7 mph - N/A   Clear
8:20 PM 41.0 °F 33.5 °F 28.4 °F 61% 29.68 in - East 13.8 mph - N/A   Clear
8:50 PM 39.2 °F 32.5 °F 30.2 °F 70% 29.68 in - East 10.4 mph - N/A   Clear
9:20 PM 37.4 °F 30.3 °F 30.2 °F 75% 29.71 in - ENE 10.4 mph - N/A   Clear
9:50 PM 37.4 °F 32.8 °F 30.2 °F 75% 29.71 in 6.2 mi East 5.8 mph - N/A   Partly Cloudy
10:20 PM 39.2 °F 34.2 °F 32.0 °F 75% 29.71 in 6.2 mi ENE 6.9 mph - N/A   Partly Cloudy
10:50 PM 39.2 °F 33.6 °F 33.8 °F 81% 29.71 in 6.2 mi East 8.1 mph 19.6 mph N/A   Mostly Cloudy
11:20 PM 39.2 °F 33.6 °F 33.8 °F 81% 29.71 in 6.2 mi ENE 8.1 mph - N/A   Mostly Cloudy
11:50 PM 39.2 °F 34.2 °F 33.8 °F 81% 29.71 in 6.2 mi ENE 6.9 mph - N/A   Scattered Clouds